This is the latest recevied weather packets stored in our database for station/object KD9NSC. If no packets are shown the sender has not sent any weather packets the latest 10 day(s).
| Time | Temp. | Humidity | Pressure | Rain* | Wind** | Luminosity | Snow |
|---|---|---|---|---|---|---|---|
| 1777301054 | 15° C | 78% | 1012.8 hPa | 0 mm | - | 33 W/m² | - |
| 1777300751 | 15° C | 79% | 1013 hPa | 0 mm | - | 29 W/m² | - |
| 1777300450 | 14.44° C | 79% | 1012.9 hPa | 0 mm | - | 31 W/m² | - |
| 1777300147 | 14.44° C | 79% | 1013 hPa | 0 mm | - | 25 W/m² | - |
| 1777299843 | 14.44° C | 79% | 1013.2 hPa | 0 mm | - | 22 W/m² | - |
| 1777299541 | 14.44° C | 80% | 1013.4 hPa | 0 mm | - | 28 W/m² | - |
| 1777299239 | 14.44° C | 80% | 1013.4 hPa | 0 mm | - | 36 W/m² | - |
| 1777298935 | 14.44° C | 80% | 1013.3 hPa | 0 mm | - | 29 W/m² | - |
| 1777298632 | 13.89° C | 80% | 1013.3 hPa | 0 mm | - | 25 W/m² | - |
| 1777298329 | 13.89° C | 81% | 1013.4 hPa | 0 mm | - | 24 W/m² | - |
| 1777298025 | 13.89° C | 81% | 1013.2 hPa | 0 mm | - | 26 W/m² | - |
| 1777297720 | 13.89° C | 81% | 1012.8 hPa | 0 mm | - | 27 W/m² | - |
| 1777297418 | 13.89° C | 81% | 1013 hPa | 0 mm | - | 26 W/m² | - |
| 1777297115 | 13.33° C | 81% | 1013 hPa | 0 mm | - | 24 W/m² | - |
| 1777296812 | 13.33° C | 81% | 1013 hPa | 0 mm | - | 22 W/m² | - |
| 1777296507 | 13.33° C | 81% | 1012.9 hPa | 0 mm | - | 29 W/m² | - |
| 1777296203 | 13.33° C | 81% | 1013 hPa | 0 mm | - | 27 W/m² | - |
| 1777295900 | 13.33° C | 81% | 1013 hPa | 0 mm | - | 27 W/m² | - |
| 1777295597 | 13.33° C | 81% | 1013.4 hPa | 0 mm | - | 30 W/m² | - |
| 1777295294 | 12.78° C | 82% | 1013 hPa | 0 mm | - | 35 W/m² | - |
| 1777294993 | 12.78° C | 83% | 1013.6 hPa | 0 mm | - | 29 W/m² | - |
| 1777294689 | 12.78° C | 83% | 1013.9 hPa | 0 mm | - | 19 W/m² | - |
| 1777294384 | 12.78° C | 83% | 1014.3 hPa | 0 mm | - | 14 W/m² | - |
| 1777294081 | 12.78° C | 83% | 1014.4 hPa | 0 mm | - | 12 W/m² | - |
| 1777293778 | 12.78° C | 83% | 1014.6 hPa | 0 mm | - | 11 W/m² | - |
* Rain latest hour (hover to see other rain measurements)
** Current wind speed in m/s (hover to see current wind gust speed)